Location: Navarre
(52.9016°N, 113.4144°W)
Time: 03:59:12
(UTC+00:00)

Envisat - Pass Details

Date: 02 December 2023
Orbit: 762 x 764 km, 98.3° (Epoch: 22 February)

Event Time Altitude Azimuth Distance (km) Brightness Sun altitude
Rises 11:48:21 0° 12° (NNE) 3,245 6.4 -31.5°
Reaches altitude 10° 11:50:41 10° 9° (N) 2,315 5.6 -31.2°
Enters shadow 11:51:27 15° 8° (N) 2,016 5.3 -31.0°
